Location: Berlin
(52.5170°N, 13.4000°E)
Time: 01:17:58
(UTC+02:00)

ISS - Pass Details

Date: 22 July 2018
Orbit: 402 x 408 km, 51.6° (Epoch: 18 July)

Event Time Altitude Azimuth Distance (km) Brightness Sun altitude
Rises 22:01:35 0° 225° (SW) 2,313 0.0 -6.3°
Reaches altitude 10° 22:03:49 10° 213° (SSW) 1,458 -1.1 -6.6°
Maximum altitude 22:06:41 29° 152° (SSE) 782 -2.9 -6.9°
Drops below altitude 10° 22:09:35 10° 90° (E) 1,466 -1.4 -7.2°
Sets 22:11:49 0° 79° (E) 2,330 -0.3 -7.4°
